| time (UTC) | temp C | wind direction | speed KPH | gust KPH | rain 1hr cm | rain 24hr cm | rain mn cm | humidity % | barometer mb |
| 20260905060015 | 13 | 0.0 | 1.6 | 0.00 | 1.27 | 1.04 | 79 | 1014.6 | |
| 20260905054515 | 13 | 0.0 | 0.0 | 0.00 | 1.37 | 1.04 | 76 | 1014.7 | |
| 20260905053016 | 14 | 0.0 | 0.0 | 0.00 | 1.45 | 1.04 | 74 | 1014.7 | |
| 20260905051516 | 14 | 0.0 | 0.0 | 0.00 | 1.60 | 1.04 | 72 | 1014.7 | |
| 20260905050015 | 15 | 0.0 | 0.0 | 0.00 | 1.65 | 1.04 | 71 | 1014.9 | |
| 20260905044515 | 15 | 0.0 | 0.0 | 0.00 | 1.68 | 1.04 | 70 | 1014.8 | |
| 20260905043015 | 15 | 0.0 | 0.0 | 0.00 | 1.75 | 1.04 | 69 | 1014.5 | |
| 20260905041535 | 15 | 0.0 | 0.0 | 0.00 | 1.80 | 1.04 | 67 | 1014.6 | |
| 20260905040015 | 15 | 0.0 | 0.0 | 0.00 | 1.80 | 1.04 | 64 | 1014.4 | |
| 20260905034515 | 15 | 0.0 | 0.0 | 0.00 | 1.83 | 1.04 | 63 | 1014.1 | |
| 20260905033035 | 16 | 0.0 | 0.0 | 0.00 | 1.85 | 1.04 | 63 | 1014.1 | |
| 20260905031515 | 16 | 0.0 | 0.0 | 0.00 | 1.98 | 1.04 | 63 | 1013.9 | |
| 20260905030015 | 16 | 0.0 | 0.0 | 0.00 | 1.98 | 1.04 | 64 | 1014.0 | |
| 20260905024517 | 17 | 0.0 | 0.0 | 0.00 | 1.98 | 1.04 | 63 | 1013.9 | |
| 20260905023017 | 17 | 0.0 | 0.0 | 0.00 | 1.98 | 1.04 | 62 | 1014.1 | |
| 20260905021517 | 17 | 0.0 | 0.0 | 0.00 | 1.98 | 1.04 | 60 | 1014.1 | |
| 20260905020017 | 18 | 0.0 | 0.0 | 0.00 | 1.98 | 1.04 | 59 | 1014.2 | |
| 20260905014517 | 18 | 0.0 | 1.6 | 0.00 | 1.98 | 1.04 | 59 | 1014.2 | |
| 20260905013017 | 18 | 0.0 | 1.6 | 0.00 | 1.98 | 1.04 | 57 | 1014.2 | |
| 20260905011517 | 18 | 0.0 | 3.2 | 0.00 | 1.98 | 1.04 | 56 | 1014.1 | |
| 20260905010017 | 18 | 0.0 | 4.8 | 0.00 | 1.98 | 1.04 | 56 | 1013.9 | |
| 20260905004517 | 18 | 0.0 | 6.4 | 0.00 | 1.98 | 1.04 | 54 | 1014.0 | |
| 20260905003017 | 18 | 0.0 | 3.2 | 0.00 | 1.98 | 1.04 | 53 | 1014.1 | |
| 20260905001517 | 18 | 135 | 1.6 | 6.4 | 0.00 | 1.98 | 1.04 | 54 | 1014.1 |
| 20260905000017 | 18 | 113 | 1.6 | 6.4 | 0.00 | 1.98 | 1.04 | 54 | 1014.2 |
| 20260904234537 | 19 | 113 | 1.6 | 6.4 | 0.00 | 1.98 | 1.04 | 53 | 1014.5 |
| 20260904233017 | 19 | 0.0 | 6.4 | 0.00 | 1.98 | 1.04 | 57 | 1014.7 | |
| 20260904231517 | 19 | 0.0 | 3.2 | 0.00 | 1.98 | 1.04 | 56 | 1014.7 | |
| 20260904230017 | 19 | 0.0 | 4.8 | 0.00 | 1.98 | 1.04 | 61 | 1014.7 | |
| 20260904224517 | 19 | 113 | 1.6 | 9.7 | 0.00 | 1.98 | 1.04 | 59 | 1014.9 |
| 20260904223017 | 18 | 113 | 1.6 | 6.4 | 0.00 | 1.98 | 1.04 | 62 | 1015.0 |
| 20260904221537 | 18 | 113 | 3.2 | 8.0 | 0.00 | 1.98 | 1.04 | 62 | 1015.1 |
| 20260904220017 | 19 | 0.0 | 3.2 | 0.00 | 1.98 | 1.04 | 62 | 1015.2 | |
| 20260904214517 | 19 | 113 | 1.6 | 11.3 | 0.00 | 1.98 | 1.04 | 62 | 1015.1 |
| 20260904213017 | 18 | 113 | 3.2 | 9.7 | 0.00 | 1.98 | 1.04 | 63 | 1014.8 |
| 20260904211517 | 19 | 135 | 3.2 | 9.7 | 0.00 | 1.98 | 1.04 | 63 | 1015.0 |
| 20260904210017 | 19 | 180 | 1.6 | 6.4 | 0.00 | 1.98 | 1.04 | 64 | 1014.8 |
| 20260904204517 | 18 | 135 | 3.2 | 8.0 | 0.00 | 1.98 | 1.04 | 66 | 1014.7 |
| 20260904203017 | 18 | 180 | 1.6 | 8.0 | 0.00 | 1.98 | 1.04 | 67 | 1014.7 |
| 20260904201517 | 18 | 113 | 3.2 | 8.0 | 0.00 | 1.98 | 1.04 | 70 | 1014.7 |
| 20260904200037 | 17 | 113 | 3.2 | 8.0 | 0.00 | 1.98 | 1.04 | 74 | 1014.8 |
| 20260904194517 | 17 | 90 | 1.6 | 8.0 | 0.00 | 1.98 | 1.04 | 79 | 1014.8 |
| 20260904193017 | 16 | 113 | 1.6 | 6.4 | 0.00 | 1.98 | 1.04 | 79 | 1014.8 |
| 20260904191537 | 16 | 113 | 1.6 | 6.4 | 0.00 | 1.98 | 1.04 | 82 | 1014.8 |
| 20260904190037 | 15 | 113 | 1.6 | 6.4 | 0.00 | 1.98 | 1.04 | 89 | 1014.7 |
| 20260904184516 | 15 | 90 | 1.6 | 6.4 | 0.00 | 1.98 | 1.04 | 94 | 1014.8 |
| 20260904183036 | 15 | 90 | 3.2 | 8.0 | 0.00 | 1.98 | 1.04 | 96 | 1014.7 |
| 20260904181517 | 14 | 90 | 1.6 | 4.8 | 0.00 | 1.98 | 1.04 | 96 | 1014.6 |
| 20260904180037 | 13 | 113 | 1.6 | 6.4 | 0.03 | 1.98 | 1.04 | 96 | 1014.5 |
| 20260904174516 | 13 | 113 | 1.6 | 4.8 | 0.03 | 1.98 | 1.04 | 96 | 1014.4 |
| 20260904173037 | 13 | 113 | 1.6 | 4.8 | 0.03 | 1.98 | 1.04 | 96 | 1014.3 |
| 20260904171516 | 13 | 0.0 | 4.8 | 0.03 | 1.98 | 1.04 | 97 | 1014.2 | |
| 20260904170017 | 13 | 0.0 | 3.2 | 0.00 | 1.96 | 1.02 | 96 | 1014.1 | |
| 20260904164516 | 13 | 113 | 1.6 | 4.8 | 0.00 | 1.96 | 1.02 | 96 | 1013.9 |
| 20260904163016 | 13 | 0.0 | 6.4 | 0.00 | 1.96 | 1.02 | 97 | 1013.8 | |
| 20260904161517 | 12 | 0.0 | 8.0 | 0.03 | 1.96 | 1.02 | 96 | 1013.6 | |
| 20260904160016 | 12 | 0.0 | 4.8 | 0.03 | 1.96 | 1.02 | 96 | 1013.4 | |
| 20260904154516 | 12 | 0.0 | 3.2 | 0.03 | 1.96 | 1.02 | 96 | 1013.2 | |
| 20260904153037 | 12 | 0.0 | 9.7 | 0.05 | 1.96 | 1.02 | 96 | 1013.2 | |
| 20260904151517 | 12 | 0.0 | 4.8 | 0.03 | 1.93 | 0.99 | 96 | 1013.2 | |
| 20260904150016 | 12 | 0.0 | 3.2 | 0.05 | 1.93 | 0.99 | 96 | 1013.1 | |
| 20260904144517 | 12 | 0.0 | 1.6 | 0.05 | 1.93 | 0.99 | 96 | 1012.9 | |
| 20260904143016 | 12 | 0.0 | 3.2 | 0.03 | 1.91 | 0.97 | 96 | 1012.9 | |
| 20260904141517 | 12 | 0.0 | 1.6 | 0.03 | 1.91 | 0.97 | 96 | 1012.7 | |
| 20260904140017 | 12 | 0.0 | 1.6 | 0.00 | 1.88 | 0.94 | 96 | 1012.6 | |
| 20260904134516 | 12 | 0.0 | 0.0 | 0.03 | 1.88 | 0.94 | 96 | 1012.4 | |
| 20260904133016 | 12 | 0.0 | 1.6 | 0.03 | 1.88 | 0.94 | 96 | 1012.4 | |
| 20260904131516 | 12 | 0.0 | 0.0 | 0.03 | 1.88 | 0.94 | 96 | 1012.3 | |
| 20260904130036 | 12 | 0.0 | 3.2 | 0.03 | 1.88 | 0.94 | 96 | 1012.2 | |
| 20260904124516 | 12 | 0.0 | 0.0 | 0.00 | 1.85 | 0.91 | 96 | 1011.9 | |
| 20260904123016 | 12 | 0.0 | 0.0 | 0.00 | 1.85 | 0.91 | 96 | 1011.9 | |
| 20260904121516 | 12 | 0.0 | 1.6 | 0.03 | 1.85 | 0.91 | 96 | 1011.8 | |
| 20260904120016 | 12 | 0.0 | 0.0 | 0.05 | 1.85 | 0.91 | 96 | 1011.8 | |
| 20260904114516 | 12 | 0.0 | 0.0 | 0.08 | 1.85 | 0.91 | 96 | 1011.6 | |
| 20260904113016 | 12 | 0.0 | 1.6 | 0.08 | 1.85 | 0.91 | 95 | 1011.7 | |
| 20260904111556 | 13 | 0.0 | 8.0 | 0.10 | 1.83 | 0.89 | 96 | 1011.9 | |
| 20260904110016 | 13 | 0.0 | 1.6 | 0.10 | 1.80 | 0.86 | 96 | 1011.6 | |
| 20260904104516 | 13 | 0.0 | 0.0 | 0.15 | 1.78 | 0.84 | 96 | 1011.6 | |
| 20260904103036 | 13 | 0.0 | 3.2 | 0.23 | 1.78 | 0.84 | 96 | 1011.6 | |
| 20260904101536 | 13 | 0.0 | 1.6 | 0.25 | 1.73 | 0.81 | 96 | 1011.6 | |
| 20260904100016 | 13 | 0.0 | 4.8 | 0.36 | 1.70 | 0.76 | 96 | 1011.4 | |
| 20260904094536 | 13 | 0.0 | 8.0 | 0.36 | 1.63 | 0.69 | 96 | 1011.6 | |
| 20260904093016 | 13 | 0.0 | 1.6 | 0.41 | 1.55 | 0.61 | 96 | 1011.6 | |
| 20260904091516 | 13 | 0.0 | 1.6 | 0.36 | 1.47 | 0.53 | 95 | 1011.7 | |
| 20260904090016 | 13 | 0.0 | 0.0 | 0.28 | 1.35 | 0.41 | 95 | 1011.7 | |
| 20260904084516 | 13 | 0.0 | 3.2 | 0.25 | 1.27 | 0.33 | 95 | 1011.8 | |
| 20260904083016 | 13 | 0.0 | 4.8 | 0.13 | 1.14 | 0.20 | 95 | 1011.9 | |
| 20260904081536 | 14 | 0.0 | 4.8 | 0.13 | 1.12 | 0.18 | 95 | 1012.0 | |
| 20260904080016 | 14 | 0.0 | 0.0 | 0.13 | 1.07 | 0.13 | 95 | 1012.0 | |
| 20260904074516 | 14 | 0.0 | 1.6 | 0.13 | 1.02 | 0.08 | 95 | 1012.1 | |
| 20260904073016 | 14 | 0.0 | 0.0 | 0.15 | 1.02 | 0.08 | 95 | 1012.1 | |
| 20260904071516 | 14 | 0.0 | 0.0 | 0.18 | 0.99 | 0.05 | 95 | 1012.1 | |
| 20260904070016 | 14 | 0.0 | 1.6 | 0.23 | 0.94 | 0.94 | 95 | 1012.1 | |
| 20260904064515 | 14 | 0.0 | 0.0 | 0.28 | 0.89 | 0.89 | 95 | 1012.1 | |
| 20260904063015 | 14 | 0.0 | 0.0 | 0.33 | 0.86 | 0.86 | 95 | 1012.1 | |
| 20260904061515 | 14 | 0.0 | 1.6 | 0.43 | 0.81 | 0.81 | 94 | 1012.0 |